CAPE
6 32 21 0 29 39 3 77 57 2 0 72 47 402 374 294 210 183 207 101 10 17 22 38 15 7 4 20 40 97 0 0 0 66 34 5 0 0 5 18 12 5 2 8
1 0 36 23 16 12 79 56 17 43 69 132 60 359 455 458 396 181 142 332 184 12 29 221 250 231 28 22 227 76 42 13 17 272 73 14 0 1 5 11 0 0 1 10
0 0 2 9 36 25 3 0 34 7 13 236 136 399 141 42 225 42 9 91 29 1 27 68 221 289 219 371 416 283 268 153 221 384 274 130 28 11 24 1 0 0 0 21
0 0 0 13 54 54 26 13 9 0 0 1 156 47 227 33 81 22 0 3 17 44 22 59 48 88 289 419 567 278 367 104 372 276 178 75 3 0 4 1 14 20 21 21
0 0 11 19 12 40 0 5 5 0 26 50 154 146 0 0 13 11 9 0 0 17 48 144 170 1 83 3 126 337 7 1 0 120 332 146 89 60 1 11 4 11 13 18
0 0 5 9 38 8 75 126 108 125 73 69 150 0 33 22 4 3 0 0 0 0 5 8 88 230 138 86 102 171 0 0 0 0 143 337 247 215 157 48 0 23 11 23
0 0 36 48 0 74 142 75 3 11 5 107 183 223 41 7 2 11 0 0 0 0 0 15 14 23 104 96 320 157 314 525 247 322 320 294 158 158 122 61 57 5 20 2
8 28 3 37 86 60 48 1 20 7 67 11 63 156 0 2 0 0 0 0 0 0 0 2 5 11 32 54 74 17 152 231 488 493 294 434 162 92 116 145 29 50 34 19
27 59 25 45 68 50 0 0 0 0 0 0 77 16 3 1 0 0 1 8 0 0 0 0 0 0 0 0 0 11 0 8 76 62 10 0 102 14 29 204 20 177 166 36
13 63 154 19 3 0 0 0 0 7 1 10 156 158 2 0 0 2 8 2 5 7 5 2 0 0 0 0 0 0 0 0 1 198 193 51 295 121 153 113 42 20 183 212
48 105 133 123 54 11 0 0 8 4 0 43 108 71 95 17 1 6 1 0 0 0 0 0 0 0 0 0 0 0 0 0 1 13 20 90 49 63 130 192 346 12 2 45
0 1 0 0 1 0 0 0 0 0 2 5 0 51 3 1 12 9 0 0 0 0 0 0 0 0 0 0 0 1 0 1 8 10 10 16 19 51 145 229 171 144 129 136
3 0 0 0 26 19 0 0 0 0 0 1 71 60 1 0 0 0 0 0 0 0 0 0 0 0 0 0 0 0 5 7 3 0 14 37 44 22 140 247 316 119 44 1
13 0 0 0 0 0 8 13 0 0 1 13 46 109 13 0 0 0 0 0 0 0 0 0 0 2 0 2 0 0 7 3 2 6 3 16 43 88 107 100 240 1 0 0
0 0 0 0 0 0 0 0 0 0 0 0 0 7 61 0 1 0 0 0 0 0 0 0 0 4 7 9 5 4 12 32 17 9 29 18 24 167 87 175 134 3 2 2
0 32 0 0 0 0 0 0 0 0 0 1 4 61 113 0 0 0 0 0 0 0 0 0 9 14 8 12 37 17 30 24 15 13 20 33 33 84 96 69 36 5 2 42
6 8 0 4 5 5 0 14 8 0 5 8 1 3 0 0 0 0 0 0 0 0 0 7 5 25 25 32 45 52 34 30 48 24 49 22 15 37 40 35 29 0 2 45
102 13 0 0 40 3 137 0 0 0 0 0 0 5 0 0 0 0 0 0 0 0 4 1 1 4 16 15 9 25 32 41 35 23 17 10 11 9 32 12 6 28 17 45
78 13 0 99 51 51 23 132 158 0 0 0 1 0 0 0 0 0 0 0 0 2 0 0 0 0 7 12 18 13 7 6 0 0 0 12 3 18 11 20 0 0 0 5
191 194 98 30 54 12 120 74 98 0 0 12 0 0 0 0 0 0 0 0 0 0 0 0 0 2 15 3 3 4 2 2 0 3 14 8 17 3 5 14 13 1 0 0
294 148 185 12 1 14 82 5 0 0 103 0 0 0 0 0 0 0 0 0 0 0 0 0 1 11 5 3 2 0 4 6 5 12 9 17 33 7 12 16 28 34 40 104
160 31 20 149 145 86 0 0 39 38 0 0 0 0 0 0 0 1 0 0 0 0 0 0 4 18 0 3 2 6 15 6 12 16 8 13 19 23 13 18 24 31 38 11
239 210 201 161 198 122 0 3 0 0 0 0 0 0 0 0 0 0 0 0 0 0 0 4 8 6 0 7 5 2 0 12 12 19 13 7 28 7 12 3 6 17 7 2
457 265 43 48 120 29 0 0 0 0 0 0 0 0 0 0 0 0 0 0 0 0 0 6 3 2 3 5 0 0 9 17 8 10 1 18 10 8 16 15 0 3 42 2
76 317 108 40 170 0 0 0 0 0 0 0 0 0 0 0 0 0 0 0 0 0 2 5 7 1 10 7 0 5 11 17 10 13 11 6 8 2 16 9 8 8 18 0
37 19 0 16 75 93 0 0 0 0 0 0 0 0 0 0 0 0 0 0 0 0 3 5 4 4 6 2 4 0 1 20 10 6 12 4 0 6 5 19 13 12 2 0
CIN
-7 -24 -28 0 -18 -26 -6 -3 -63 -21 0 -45 -12 -39 -49 -113 -67 -18 -7 -80 -187 -22 -11 -105 -61 -40 -29 -16 -9 -25 0 0 0 -21 -4 -4 0 0 -1 -20 -23 -23 -11 -7
-1 0 -36 -31 -20 -7 -11 -3 -64 -51 -11 -18 -11 -13 -33 -71 -37 -32 -14 -12 -14 -11 -4 -25 -28 -34 -77 -55 -31 -58 -80 -89 -55 -11 -19 -49 0 -1 -1 -10 0 0 -6 -15
0 0 -2 -7 -6 -43 -42 -2 -14 -8 -4 -14 -28 -45 -185 -95 -7 -33 -96 -61 -31 -1 -28 -42 -20 -16 -9 -4 -17 -60 -38 -47 -26 -15 -5 -5 -48 -2 -7 -4 0 0 0 -7
0 0 -2 -17 -5 -13 -13 -5 -14 0 -1 -1 -33 -21 -30 -5 -18 -101 0 -8 -25 -33 -44 -69 -27 -54 -6 -20 -9 -12 -21 -15 -2 -5 -13 -15 -45 -1 -9 -2 -4 -5 -11 -13
-2 0 -8 -5 -4 -23 0 -42 -40 0 -18 -8 -10 -31 0 0 -13 -15 -1 0 0 -13 -13 -25 -31 -9 -79 -88 -108 -58 -161 -10 0 -90 -14 -13 -25 -22 -48 -3 -9 -10 -15 -18
0 0 -8 -21 -34 -3 -16 -21 -5 -15 -4 -32 -73 0 -81 -38 -23 -22 0 0 0 0 -14 -25 -22 -31 -31 -37 -73 -86 0 0 0 0 -34 -21 -22 -26 -19 -23 -2 -24 -14 -5
0 0 -5 -44 0 -6 -3 -7 -1 -5 -1 -4 -60 -59 -79 -12 -41 -30 -1 0 0 0 0 -11 -8 -11 -6 -7 -6 -23 -13 -19 -72 -38 -26 -23 -6 -11 -13 -36 -25 -5 -9 -13
-13 -3 -7 -24 -12 -11 -23 -1 -4 -3 -3 -19 -2 -16 0 -13 0 0 0 0 0 0 0 -12 -41 -24 -33 -37 -44 -93 -40 -36 -10 -7 -12 -5 -6 -28 -6 -13 -52 -6 -15 -15
-24 -6 -64 -21 -46 -35 0 0 0 0 0 0 -30 -149 -144 -1 0 0 -2 -1 -4 0 0 0 0 0 0 0 0 -5 0 -147 -78 -78 -41 0 -33 -65 -84 -12 -46 -16 -4 -18
-17 -7 -2 -23 -63 -2 0 0 0 -1 -1 -4 -11 -34 -27 0 -9 -5 -2 -10 -6 -4 -3 -2 0 0 0 0 0 0 0 0 -2 -33 -43 -13 -16 -12 -8 -19 -40 -48 -15 -7
-25 -26 -8 -3 -5 -5 0 0 -1 -7 0 -4 -15 -14 -18 -42 -3 -72 -2 0 0 -6 0 0 0 0 0 0 0 0 0 0 -1 -16 -24 -43 -33 -28 -20 -3 -5 -28 -16 -29
0 -4 0 0 -1 0 0 0 0 0 0 0 -1 -29 -37 -3 -125 -132 0 0 0 0 0 0 0 0 0 0 0 -2 0 -1 -4 -2 -5 -14 -30 -35 -8 -6 -15 -18 -9 -4
-68 0 0 0 -30 -31 0 0 0 0 0 0 -6 -13 -2 -30 0 0 0 0 0 0 0 0 0 0 0 0 0 0 -5 -7 -15 -1 -26 -4 -37 -43 -31 -19 -7 -22 -22 -20
-48 0 0 0 0 0 -3 -2 0 0 -1 -9 -8 -12 -28 -3 -2 0 0 0 0 0 0 0 0 -3 0 -2 0 0 -5 -8 -7 -12 -22 -16 -11 -21 -25 -20 -4 -40 0 -12
0 0 -1 0 0 0 0 0 0 0 0 0 0 -3 -13 0 -1 0 0 0 0 0 0 0 0 -2 -2 -5 -9 -7 -5 -4 -13 -22 -6 -21 -9 -5 -23 -9 -4 -27 -23 -29
0 -26 0 0 0 0 0 0 0 0 0 -1 -2 -5 -31 0 0 0 0 0 0 0 0 0 -1 -2 -5 -15 -3 -21 -18 -34 -26 -3 -14 -8 -13 -11 -23 -9 -17 -33 -41 -22
-57 -60 0 -2 -8 -3 0 -1 -2 0 -2 -2 -1 -6 0 0 0 0 0 0 0 0 0 -2 -4 -3 -6 -6 -7 -7 -16 -14 -2 -9 -8 -11 -10 -12 -9 -14 -6 -26 -8 -14
-3 -46 -20 0 -6 -2 -1 0 0 0 0 0 0 -5 0 0 0 0 0 0 0 0 -3 -1 -3 -3 -10 -11 -9 -3 -3 -7 -17 -15 -5 -17 -6 -17 -14 -18 -26 -4 -11 -12
-24 -36 0 -2 -2 -14 -8 -10 -35 -3 0 0 -1 0 0 0 0 0 0 -1 -1 -4 0 0 0 0 -7 -5 -13 -14 -22 -17 -7 0 -13 -1 -9 -7 -14 -12 0 0 0 -18
-3 -3 -16 -16 -7 -13 -53 -4 -61 0 0 -48 0 0 0 0 0 -4 0 -1 0 0 0 0 0 -1 -6 -20 -30 -26 -8 -3 0 -10 -2 -3 -5 -16 -17 -13 -12 -7 -2 -2
-10 -39 -9 -32 -3 -35 -31 -12 0 0 -29 0 0 0 0 0 0 0 0 0 0 0 0 0 -1 -2 -24 -30 -25 0 -2 -7 -6 -1 -10 -14 -1 -7 -6 -18 -23 -14 -24 -5
-11 -21 -3 -5 -4 -14 0 0 -42 -99 0 0 0 0 0 0 0 -2 0 0 0 0 0 0 -1 -2 -9 -20 -20 -16 -6 -2 -2 -1 -8 -14 -12 -4 -10 -13 -34 -18 -10 -24
-4 -38 -5 -5 -9 -50 0 -11 0 0 0 0 0 0 0 0 0 0 0 0 0 0 0 -2 -2 -10 -4 -14 -12 -6 -2 -2 -2 -10 -5 -11 -3 -21 -5 -15 -30 -22 -12 -25
-11 -8 -34 -4 -31 -63 0 0 0 0 0 0 0 0 0 0 0 0 0 0 0 0 0 -2 -16 -16 -12 -9 -2 0 -8 -9 -3 -2 -4 -7 -12 -5 -4 -3 0 -20 -3 -18
-7 -15 -3 -7 -10 0 0 0 0 0 0 0 0 0 0 0 0 0 0 0 0 0 -1 -2 -8 -8 -4 -3 0 -1 -1 -7 -5 -1 -13 -14 -4 -10 -4 -12 -7 -13 -21 0
-48 -24 0 -19 -25 -22 0 0 0 0 0 0 0 0 0 0 0 0 0 0 0 0 -1 -1 -8 -4 -2 -3 -3 -1 -1 -1 -8 -9 -6 -11 -1 -13 -11 -9 -7 -37 -42 0
Wind_Speed
17 8 9 18 7 4 23 27 25 27 12 13 19 7 5 8 11 12 11 11 10 10 6 6 5 6 4 7 7 10 12 16 17 17 22 26 29 26 24 21 20 21 20 18
19 18 11 13 7 3 29 28 24 18 2 15 19 11 10 7 11 12 13 14 14 12 13 9 7 6 6 6 9 11 16 17 16 16 18 19 23 23 21 23 22 22 22 21
20 21 12 15 27 25 28 24 22 25 30 11 15 16 12 9 10 13 14 16 15 14 14 13 11 9 9 11 12 16 12 14 9 13 19 20 19 25 20 22 22 20 21 22
24 22 20 5 21 27 5 29 36 41 25 21 13 21 22 10 13 16 19 18 16 17 19 17 15 25 21 18 23 18 19 23 15 20 9 13 17 19 21 21 19 20 23 22
26 23 27 27 28 27 32 34 15 9 14 13 18 25 20 16 13 17 19 21 22 20 20 19 19 20 21 23 24 21 21 24 12 14 19 7 11 18 19 18 18 18 22 14
28 27 16 21 32 12 23 20 11 11 11 12 11 18 15 11 9 17 19 21 23 25 24 25 21 20 22 25 25 25 21 20 16 17 14 12 13 16 19 21 22 21 19 17
23 24 23 22 31 8 17 20 25 24 20 18 10 18 13 9 15 16 18 21 23 24 24 23 25 27 27 27 27 25 22 23 18 17 15 15 12 15 16 18 16 18 22 22
32 34 18 11 2 24 25 26 21 23 20 24 17 14 15 18 18 17 17 20 23 26 27 28 29 28 30 31 32 33 33 34 29 24 23 23 16 22 13 15 17 20 25 23
31 29 11 6 16 25 27 22 29 20 15 13 15 16 13 12 14 15 18 21 25 27 26 27 29 27 26 26 28 27 31 31 32 32 32 28 25 17 18 21 20 25 24 23
27 29 19 9 14 23 14 23 23 19 20 18 17 14 13 9 14 20 18 22 24 24 26 27 27 28 29 31 31 31 33 34 35 31 29 30 24 19 21 20 20 12 23 25
27 21 22 15 19 18 24 22 18 21 16 18 23 20 12 12 15 19 22 23 25 26 27 27 26 27 28 28 29 30 31 34 34 33 34 34 32 26 22 24 19 17 21 19
20 23 16 16 16 21 19 18 20 19 17 23 23 17 15 16 19 21 23 23 26 24 25 25 26 27 30 30 31 32 34 33 35 37 36 35 36 35 28 24 24 24 24 22
26 22 26 19 19 22 15 16 19 17 17 17 24 19 9 16 20 21 24 26 23 25 23 25 26 27 29 30 31 33 34 34 36 38 38 35 34 34 29 22 23 27 30 31
23 22 14 14 23 20 13 14 17 16 16 24 23 16 14 18 21 21 23 23 24 23 23 24 26 25 28 27 29 30 31 32 33 32 34 35 35 33 31 12 17 30 32 31
23 18 19 14 19 18 18 16 17 18 19 20 24 23 15 17 22 23 23 23 23 22 25 26 27 27 28 29 29 29 29 30 30 33 29 34 33 26 30 10 1 27 26 13
21 18 19 18 11 14 16 14 14 14 16 21 21 20 20 20 20 21 23 22 22 25 27 25 28 30 30 31 32 31 30 32 31 29 32 32 35 33 25 8 23 28 21 27
18 21 20 22 17 18 14 14 10 16 20 21 22 22 23 23 25 23 20 20 22 25 26 29 30 31 30 29 30 30 30 30 28 29 29 35 36 37 35 32 22 24 23 28
16 17 16 16 11 16 17 15 17 17 21 20 18 18 23 23 22 19 19 20 22 27 32 32 32 33 31 30 31 30 32 32 32 31 31 34 36 35 33 28 25 24 26 26
13 16 17 15 14 14 10 13 15 20 25 23 16 20 24 24 21 18 21 23 25 31 31 32 31 29 30 31 31 31 32 32 29 29 32 34 36 35 32 28 25 28 27 25
16 12 21 12 17 19 20 14 16 20 24 23 21 22 24 23 20 22 23 24 27 30 31 31 30 29 30 31 31 31 30 31 30 29 34 35 32 34 31 30 26 27 28 28
16 17 14 20 24 22 20 19 20 24 23 21 22 22 21 21 22 23 23 27 29 31 30 30 30 28 28 29 29 29 30 32 32 29 36 37 33 32 31 30 28 26 26 27
22 22 20 23 28 23 18 20 25 21 20 22 21 20 20 22 23 24 26 27 27 30 30 28 28 29 29 30 31 29 27 30 31 29 31 35 34 33 30 29 29 25 23 23
19 27 25 23 22 17 22 21 20 20 20 20 20 21 22 22 25 27 27 26 26 28 28 27 29 29 30 29 29 28 28 27 28 28 32 34 31 32 30 29 27 26 21 21
18 18 22 22 18 18 19 19 20 20 20 19 19 19 21 24 25 26 25 25 25 27 27 29 30 29 28 26 28 27 25 25 25 26 28 29 32 34 29 28 24 25 22 21
23 17 21 25 18 19 16 17 18 18 18 19 18 20 22 23 25 25 23 24 25 25 26 28 29 28 27 26 28 22 21 23 22 22 26 28 30 32 28 25 23 24 21 19
24 21 26 23 22 19 21 16 16 18 19 20 22 23 24 25 24 23 22 23 25 24 25 26 27 26 25 24 24 23 23 21 20 21 23 23 27 32 27 25 23 20 18 18
Wind_Direction
211 75 72 263 185 188 274 337 344 342 11 18 7 16 22 26 21 22 29 22 19 13 19 26 20 10 353 334 323 322 319 323 327 333 337 338 339 344 345 353 353 351 349 348
222 223 355 26 212 68 315 322 360 360 216 4 1 359 350 23 45 28 22 19 14 17 11 10 7 2 336 328 332 323 321 323 324 329 335 343 346 348 347 343 344 344 344 342
224 242 8 338 335 332 334 270 359 350 337 338 0 353 348 318 39 39 29 27 23 18 10 360 359 1 347 336 339 320 327 318 308 316 330 340 352 351 350 344 342 344 342 336
253 246 328 1 348 335 340 337 325 322 345 346 357 342 353 337 38 33 18 21 18 13 18 22 12 356 355 344 340 347 339 335 311 330 4 356 356 353 350 352 350 344 338 335
240 244 277 291 326 339 328 331 345 318 345 328 352 341 355 359 15 21 26 24 19 24 20 11 4 359 355 353 349 343 340 343 340 328 326 7 3 3 2 354 353 351 338 351
242 246 342 331 307 356 350 358 341 291 312 336 350 358 333 360 25 9 18 18 14 9 12 9 9 7 358 353 354 352 354 350 344 332 324 331 340 349 350 349 348 346 350 344
227 243 319 332 320 273 357 352 348 355 360 350 10 359 22 30 26 12 15 12 15 16 10 10 6 358 3 3 355 355 355 350 344 338 332 319 321 334 341 347 351 350 340 339
279 285 328 330 353 341 344 347 354 344 349 342 352 1 5 6 6 12 15 13 11 8 6 359 356 354 352 349 348 347 346 340 345 346 337 327 332 339 354 351 346 342 327 331
298 316 11 10 350 340 341 349 340 341 338 329 349 347 352 19 28 15 7 5 8 4 3 2 357 359 359 0 359 357 352 346 342 338 336 335 324 332 328 334 341 330 325 326
313 279 348 20 355 341 3 352 358 3 352 346 354 355 352 10 4 1 7 7 5 6 1 359 3 2 360 355 354 353 351 347 342 345 345 343 338 333 332 329 333 333 324 317
319 331 331 346 348 347 345 351 358 355 352 348 349 347 15 19 12 9 11 5 359 356 356 359 2 359 358 357 355 355 354 349 347 347 342 338 336 331 326 325 327 319 319 306
340 331 344 342 357 356 0 1 2 358 355 346 343 350 15 22 10 3 1 0 354 359 0 2 1 358 357 356 355 354 352 350 346 343 341 340 335 329 328 325 320 314 304 314
321 337 333 348 354 353 11 9 2 2 359 356 348 347 30 10 360 0 359 354 0 1 4 1 360 359 358 357 356 353 351 350 348 343 341 343 341 341 335 328 323 310 291 289
333 335 350 349 345 0 7 11 5 6 2 353 3 10 360 359 359 359 1 5 4 4 4 3 0 359 358 359 358 356 355 353 352 353 348 343 342 345 342 336 329 292 283 280
338 349 351 1 352 357 356 359 2 1 359 358 347 352 11 5 358 1 3 3 5 6 0 0 358 357 357 357 357 356 356 355 355 352 351 346 348 354 294 239 207 250 298 220
353 355 357 351 4 7 358 359 5 6 7 355 354 356 360 358 0 2 0 3 6 3 358 360 358 355 356 356 357 357 356 352 348 350 350 346 339 346 285 359 324 245 210 233
357 352 353 352 6 355 355 4 22 6 1 1 352 355 355 357 355 358 4 7 7 1 358 357 356 358 359 359 356 352 351 352 351 350 349 342 335 324 315 331 264 224 216 243
358 2 2 356 1 351 10 23 11 7 2 2 358 5 357 359 360 5 10 10 5 356 353 357 357 357 0 359 356 357 356 353 352 351 349 340 335 317 314 309 298 275 271 257
13 3 357 353 350 354 357 2 13 4 354 355 359 3 355 357 359 5 12 7 4 353 357 357 357 359 0 0 1 1 358 358 1 355 348 339 331 312 308 302 306 277 270 268
354 8 7 248 347 351 5 351 12 1 353 5 5 358 354 358 2 14 4 4 2 356 357 359 0 2 4 5 4 2 359 355 356 356 347 336 338 318 304 304 287 286 264 259
1 354 353 353 326 355 351 0 357 349 351 359 357 356 358 355 357 355 0 358 355 353 358 3 4 6 11 8 7 5 4 356 358 358 342 331 329 322 307 307 296 284 275 271
342 339 346 349 341 346 359 353 348 352 354 354 357 1 1 358 356 357 357 357 359 357 1 6 7 10 12 11 10 11 11 1 359 0 351 332 326 318 311 305 303 294 283 283
350 334 346 347 344 356 354 356 358 355 355 358 359 1 358 356 354 354 357 360 2 0 4 9 8 10 9 12 13 13 12 10 7 5 352 333 339 328 309 303 304 301 299 299
9 10 354 349 358 359 358 5 1 360 360 1 2 359 360 354 353 354 1 2 4 4 7 8 10 10 12 16 15 16 17 16 16 14 4 357 348 331 305 295 296 299 296 299
347 1 0 353 6 0 357 3 1 2 2 359 1 3 358 356 356 357 4 3 4 7 9 11 14 16 15 18 16 21 21 19 19 20 16 7 358 340 298 290 289 287 298 299
357 3 352 351 359 356 359 1 7 360 359 1 355 351 354 353 355 3 6 6 5 10 12 16 17 18 19 20 19 23 23 21 20 19 19 18 5 328 307 289 287 293 296 297